KAL1052 VMMC-RKSI

Flight info

Callsign KAL1052
Flight time 2h 58m
Altitude 35000
Route N0457F350 CONG2P CONGA V631 ENVAR M750 ANLOT B1 APU A1 DRAKE Q11 WP900 L4 LIPLO Y741 ATOTI Y722 OLMEN OLME2H
Aircraft B736/M-SCDFGHIRUWXYZ/L

Departure

Time 2026-04-25 14:48
Airport Macau International Airport (VMMC)

Arrival

Time 2026-04-25 17:46
Airport Incheon International Airport (RKSI)
Time Latitude Longitude Altitude Speed Heading
2026-04-25 14:08 22.15693 113.57730 28 ft 0 kts 117°
2026-04-25 14:33 22.15696 113.57723 28 ft 4 kts 117°
2026-04-25 14:33 22.15709 113.57697 28 ft 4 kts 117°
2026-04-25 14:34 22.15721 113.57672 28 ft 4 kts 122°
2026-04-25 14:34 22.15733 113.57656 28 ft 3 kts 198°
2026-04-25 14:34 22.15752 113.57665 28 ft 3 kts 204°
2026-04-25 14:34 22.15755 113.57667 28 ft 0 kts 204°
2026-04-25 14:37 22.15751 113.57664 28 ft 2 kts 204°
2026-04-25 14:37 22.15735 113.57656 28 ft 4 kts 204°
2026-04-25 14:37 22.15706 113.57642 28 ft 6 kts 207°
2026-04-25 14:38 22.15665 113.57610 28 ft 10 kts 218°
2026-04-25 14:38 22.15592 113.57637 28 ft 17 kts 124°
2026-04-25 14:38 22.15515 113.57762 28 ft 22 kts 123°
2026-04-25 14:38 22.15428 113.57903 28 ft 23 kts 123°
2026-04-25 14:39 22.15338 113.58050 28 ft 24 kts 123°
2026-04-25 14:39 22.15245 113.58201 28 ft 24 kts 123°
2026-04-25 14:39 22.15155 113.58346 28 ft 23 kts 123°
2026-04-25 14:39 22.15068 113.58486 28 ft 22 kts 123°
2026-04-25 14:40 22.14984 113.58623 28 ft 22 kts 123°
2026-04-25 14:40 22.14897 113.58763 28 ft 23 kts 123°
2026-04-25 14:40 22.14806 113.58910 28 ft 23 kts 124°
2026-04-25 14:40 22.14708 113.59042 27 ft 23 kts 154°
2026-04-25 14:41 22.14554 113.59101 27 ft 24 kts 160°
2026-04-25 14:41 22.14396 113.59159 27 ft 23 kts 162°
2026-04-25 14:41 22.14246 113.59213 27 ft 22 kts 161°
2026-04-25 14:41 22.14100 113.59267 27 ft 22 kts 161°
2026-04-25 14:42 22.13959 113.59320 27 ft 21 kts 161°
2026-04-25 14:42 22.13867 113.59354 27 ft 21 kts 160°
2026-04-25 14:42 22.13689 113.59419 27 ft 20 kts 161°
2026-04-25 14:42 22.13575 113.59461 27 ft 13 kts 155°
2026-04-25 14:43 22.13549 113.59489 27 ft 0 kts 127°
2026-04-25 14:44 22.13544 113.59496 27 ft 3 kts 127°
2026-04-25 14:44 22.13518 113.59535 27 ft 9 kts 125°
2026-04-25 14:44 22.13491 113.59614 27 ft 13 kts 80°
2026-04-25 14:44 22.13561 113.59651 27 ft 2 kts 343°
2026-04-25 14:45 22.13562 113.59651 27 ft 0 kts 342°
2026-04-25 14:45 22.13565 113.59650 27 ft 0 kts 342°
2026-04-25 14:47 22.13566 113.59649 27 ft 2 kts 342°
2026-04-25 14:47 22.13658 113.59617 27 ft 48 kts 341°
2026-04-25 14:47 22.14540 113.59295 29 ft 150 kts 343°
2026-04-25 14:47 22.15634 113.58927 529 ft 168 kts 345°
2026-04-25 14:48 22.16753 113.58692 1474 ft 163 kts 357°
2026-04-25 14:48 22.17879 113.58827 2115 ft 174 kts 31°
2026-04-25 14:48 22.19046 113.59508 2479 ft 206 kts 29°
2026-04-25 14:48 22.20360 113.60210 3167 ft 214 kts 27°
2026-04-25 14:49 22.21718 113.60926 3944 ft 219 kts 27°
2026-04-25 14:49 22.23105 113.61656 4799 ft 224 kts 27°
2026-04-25 14:49 22.24516 113.62401 5607 ft 228 kts 27°
2026-04-25 14:49 22.25950 113.63160 6161 ft 232 kts 27°
2026-04-25 14:50 22.27428 113.63942 6880 ft 246 kts 27°
2026-04-25 14:50 22.29002 113.64921 7174 ft 277 kts 37°
2026-04-25 14:50 22.30553 113.66256 7830 ft 291 kts 40°
2026-04-25 14:50 22.32127 113.67662 8723 ft 296 kts 39°
2026-04-25 14:51 22.33659 113.69177 9595 ft 302 kts 52°
2026-04-25 14:51 22.34604 113.71205 10456 ft 307 kts 75°
2026-04-25 14:51 22.35063 113.73472 11298 ft 312 kts 78°
2026-04-25 14:51 22.35483 113.75787 12133 ft 316 kts 78°
2026-04-25 14:52 22.35917 113.78128 12966 ft 320 kts 77°
2026-04-25 14:52 22.36366 113.80494 13771 ft 324 kts 77°
2026-04-25 14:52 22.36836 113.82929 14173 ft 341 kts 77°
2026-04-25 14:52 22.37167 113.84630 14330 ft 357 kts 77°
2026-04-25 14:53 22.37671 113.88256 15011 ft 373 kts 91°
2026-04-25 14:53 22.37177 113.90975 15738 ft 377 kts 108°
2026-04-25 14:53 22.36336 113.93663 16500 ft 380 kts 110°
2026-04-25 14:53 22.35438 113.96365 17173 ft 385 kts 110°
2026-04-25 14:54 22.34522 113.99108 17827 ft 390 kts 110°
2026-04-25 14:54 22.33604 114.01887 18493 ft 395 kts 110°
2026-04-25 14:54 22.32689 114.04695 19152 ft 399 kts 109°
2026-04-25 14:54 22.31769 114.07546 19801 ft 403 kts 109°
2026-04-25 14:55 22.30847 114.10422 20442 ft 408 kts 109°
2026-04-25 14:55 22.29915 114.13330 20916 ft 411 kts 110°
2026-04-25 14:55 22.28986 114.16235 21064 ft 408 kts 110°
2026-04-25 14:55 22.28062 114.19119 21841 ft 404 kts 110°
2026-04-25 14:56 22.27142 114.21990 22605 ft 404 kts 110°
2026-04-25 14:56 22.26220 114.24860 23283 ft 407 kts 110°
2026-04-25 14:56 22.25283 114.27757 23832 ft 411 kts 112°
2026-04-25 14:56 22.23938 114.30481 24294 ft 413 kts 131°
2026-04-25 14:57 22.22042 114.32806 24894 ft 414 kts 135°
2026-04-25 14:57 22.20083 114.35103 25437 ft 418 kts 136°
2026-04-25 14:57 22.18100 114.37415 25976 ft 422 kts 136°
2026-04-25 14:57 22.16107 114.39750 26482 ft 426 kts 136°
2026-04-25 14:58 22.14094 114.42128 26954 ft 431 kts 135°
2026-04-25 14:58 22.12182 114.44642 27386 ft 439 kts 126°
2026-04-25 14:58 22.10730 114.47579 27785 ft 448 kts 114°
2026-04-25 14:58 22.09783 114.50798 28223 ft 454 kts 102°
2026-04-25 14:59 22.09229 114.54149 28784 ft 454 kts 100°
2026-04-25 14:59 22.08734 114.57528 29216 ft 459 kts 99°
2026-04-25 14:59 22.08249 114.60947 29565 ft 464 kts 99°
2026-04-25 14:59 22.07760 114.64405 29927 ft 469 kts 99°
2026-04-25 15:00 22.07258 114.67890 30323 ft 472 kts 100°
2026-04-25 15:00 22.06745 114.71358 30688 ft 476 kts 100°
2026-04-25 15:00 22.06211 114.74898 31002 ft 481 kts 101°
2026-04-25 15:00 22.05662 114.78476 31274 ft 487 kts 101°
2026-04-25 15:01 22.05101 114.82097 31550 ft 492 kts 101°
2026-04-25 15:01 22.04532 114.85751 31848 ft 496 kts 101°
2026-04-25 15:01 22.03958 114.89431 32142 ft 500 kts 101°
2026-04-25 15:01 22.03379 114.93142 32403 ft 504 kts 101°
2026-04-25 15:02 22.02795 114.96881 32666 ft 509 kts 101°
2026-04-25 15:02 22.02205 115.00653 32934 ft 512 kts 101°
2026-04-25 15:02 22.01611 115.04452 33201 ft 516 kts 101°
2026-04-25 15:02 22.01012 115.08280 33435 ft 520 kts 101°
2026-04-25 15:03 22.00407 115.12133 33691 ft 522 kts 101°
2026-04-25 15:03 21.99799 115.16004 33909 ft 526 kts 101°
2026-04-25 15:03 21.99186 115.19902 34137 ft 529 kts 101°
2026-04-25 15:03 21.98569 115.23817 34424 ft 530 kts 101°
2026-04-25 15:04 21.97951 115.27732 34790 ft 529 kts 102°
2026-04-25 15:04 21.97333 115.31643 35068 ft 530 kts 102°
2026-04-25 15:04 21.96086 115.39510 35050 ft 533 kts 102°
2026-04-25 15:05 21.94845 115.47322 35040 ft 525 kts 102°
2026-04-25 15:06 21.92988 115.58956 35051 ft 526 kts 102°
2026-04-25 15:06 21.91742 115.66723 35054 ft 527 kts 102°
2026-04-25 15:07 21.90492 115.74496 35052 ft 527 kts 102°
2026-04-25 15:07 21.89236 115.82284 35050 ft 528 kts 102°
2026-04-25 15:08 21.87976 115.90077 35047 ft 529 kts 102°
2026-04-25 15:08 21.86711 115.97871 35050 ft 529 kts 102°
2026-04-25 15:09 21.85441 116.05674 35048 ft 529 kts 102°
2026-04-25 15:09 21.83529 116.17378 35047 ft 529 kts 102°
2026-04-25 15:10 21.82257 116.25134 35049 ft 529 kts 102°
2026-04-25 15:11 21.80332 116.36830 35046 ft 529 kts 102°
2026-04-25 15:11 21.79044 116.44623 35049 ft 529 kts 102°
2026-04-25 15:12 21.77108 116.56298 35047 ft 528 kts 102°
2026-04-25 15:12 21.76241 116.61507 35047 ft 528 kts 102°
2026-04-25 15:13 21.74216 116.75795 35040 ft 530 kts 90°
2026-04-25 15:14 21.75174 116.83599 35071 ft 525 kts 72°
2026-04-25 15:14 21.77734 116.90904 35073 ft 521 kts 65°
2026-04-25 15:15 21.80465 116.98113 35070 ft 520 kts 65°
2026-04-25 15:15 21.83131 117.05345 35074 ft 519 kts 66°
2026-04-25 15:16 21.85743 117.12583 35076 ft 518 kts 66°
2026-04-25 15:16 21.89643 117.23439 35079 ft 518 kts 66°
2026-04-25 15:17 21.93543 117.34295 35075 ft 518 kts 66°
2026-04-25 15:18 21.96139 117.41536 35079 ft 519 kts 66°
2026-04-25 15:18 22.00306 117.52268 35070 ft 514 kts 56°
2026-04-25 15:19 22.02755 117.56628 35081 ft 513 kts 53°
2026-04-25 15:19 22.07828 117.65291 35076 ft 514 kts 53°
2026-04-25 15:20 22.10982 117.70783 35079 ft 515 kts 54°
2026-04-25 15:20 22.14714 117.77372 35074 ft 515 kts 54°
2026-04-25 15:21 22.18444 117.83982 35070 ft 516 kts 54°
2026-04-25 15:21 22.22177 117.90592 35075 ft 516 kts 54°
2026-04-25 15:22 22.25909 117.97206 35079 ft 516 kts 54°
2026-04-25 15:22 22.29664 118.03806 35078 ft 515 kts 53°
2026-04-25 15:23 22.33502 118.10345 35074 ft 515 kts 53°
2026-04-25 15:23 22.37332 118.16887 35074 ft 515 kts 53°
2026-04-25 15:24 22.41138 118.23443 35072 ft 515 kts 54°
2026-04-25 15:24 22.44256 118.28935 35073 ft 515 kts 54°
2026-04-25 15:25 22.48614 118.36667 35075 ft 515 kts 54°
2026-04-25 15:25 22.52325 118.43237 35080 ft 515 kts 54°
2026-04-25 15:26 22.56058 118.49844 35073 ft 515 kts 54°
2026-04-25 15:26 22.59798 118.56441 35068 ft 514 kts 54°
2026-04-25 15:27 22.63560 118.63032 35074 ft 514 kts 54°
2026-04-25 15:28 22.69190 118.72915 35075 ft 514 kts 54°
2026-04-25 15:28 22.72936 118.79513 35079 ft 514 kts 54°
2026-04-25 15:29 22.76686 118.86125 35048 ft 517 kts 56°
2026-04-25 15:29 22.80489 118.92836 35061 ft 527 kts 56°
2026-04-25 15:30 22.84319 118.99612 35045 ft 527 kts 56°
2026-04-25 15:30 22.88142 119.06383 35045 ft 526 kts 56°
2026-04-25 15:31 22.91957 119.13146 35048 ft 525 kts 56°
2026-04-25 15:31 22.95764 119.19903 35048 ft 524 kts 56°
2026-04-25 15:32 22.99258 119.26113 35049 ft 524 kts 56°
2026-04-25 15:32 23.02222 119.31387 35049 ft 523 kts 56°
2026-04-25 15:33 23.07878 119.41466 35045 ft 524 kts 57°
2026-04-25 15:33 23.11665 119.48226 35054 ft 524 kts 57°
2026-04-25 15:34 23.15482 119.55050 35051 ft 525 kts 57°
2026-04-25 15:34 23.18636 119.60692 35050 ft 526 kts 57°
2026-04-25 15:35 23.24982 119.72054 35050 ft 527 kts 57°
2026-04-25 15:36 23.30686 119.82292 35049 ft 528 kts 57°
2026-04-25 15:36 23.34464 119.89082 35049 ft 528 kts 57°
2026-04-25 15:37 23.38914 119.95368 35039 ft 522 kts 40°
2026-04-25 15:37 23.44207 120.00746 35048 ft 520 kts 38°
2026-04-25 15:38 23.49534 120.06083 35049 ft 521 kts 39°
2026-04-25 15:38 23.54822 120.11486 35049 ft 521 kts 39°
2026-04-25 15:39 23.60081 120.16920 35050 ft 521 kts 39°
2026-04-25 15:39 23.65340 120.22365 35049 ft 521 kts 39°
2026-04-25 15:40 23.68858 120.26007 35050 ft 521 kts 39°
2026-04-25 15:40 23.75859 120.33258 35049 ft 521 kts 39°
2026-04-25 15:41 23.81112 120.38707 35049 ft 521 kts 39°
2026-04-25 15:41 23.86366 120.44163 35051 ft 521 kts 40°
2026-04-25 15:42 23.91675 120.49551 35041 ft 518 kts 34°
2026-04-25 15:42 23.97425 120.54248 35047 ft 516 kts 31°
2026-04-25 15:43 24.03249 120.58835 35054 ft 516 kts 31°
2026-04-25 15:43 24.09053 120.63467 35045 ft 516 kts 31°
2026-04-25 15:44 24.14793 120.68104 35052 ft 517 kts 31°
2026-04-25 15:44 24.20580 120.72795 35049 ft 517 kts 31°
2026-04-25 15:45 24.26364 120.77488 35043 ft 517 kts 31°
2026-04-25 15:45 24.30237 120.80626 35053 ft 517 kts 31°
2026-04-25 15:46 24.37951 120.86891 35054 ft 518 kts 32°
2026-04-25 15:46 24.43745 120.91605 35061 ft 518 kts 31°
2026-04-25 15:47 24.49538 120.96319 35054 ft 519 kts 32°
2026-04-25 15:47 24.55354 121.01056 35065 ft 523 kts 31°
2026-04-25 15:48 24.61247 121.05857 35091 ft 530 kts 32°
2026-04-25 15:48 24.67169 121.10698 35088 ft 530 kts 32°
2026-04-25 15:49 24.73040 121.15510 35073 ft 521 kts 32°
2026-04-25 15:49 24.78845 121.20266 35079 ft 520 kts 32°
2026-04-25 15:50 24.84605 121.24986 35071 ft 519 kts 32°
2026-04-25 15:50 24.90399 121.29742 35082 ft 519 kts 32°
2026-04-25 15:51 24.94269 121.32922 35074 ft 519 kts 32°
2026-04-25 15:51 25.01985 121.39270 35082 ft 521 kts 32°
2026-04-25 15:52 25.07839 121.44094 35075 ft 522 kts 32°
2026-04-25 15:52 25.13620 121.48865 35076 ft 523 kts 32°
2026-04-25 15:53 25.19253 121.53978 35058 ft 530 kts 44°
2026-04-25 15:53 25.24131 121.60113 35082 ft 533 kts 47°
2026-04-25 15:54 25.28938 121.66359 35081 ft 533 kts 47°
2026-04-25 15:54 25.33783 121.72553 35066 ft 532 kts 46°
2026-04-25 15:55 25.38644 121.78703 35071 ft 530 kts 46°
2026-04-25 15:55 25.43489 121.84832 35070 ft 528 kts 46°
2026-04-25 15:56 25.48312 121.90950 35077 ft 527 kts 46°
2026-04-25 15:56 25.53123 121.97066 35071 ft 526 kts 46°
2026-04-25 15:57 25.57918 122.03168 35079 ft 525 kts 46°
2026-04-25 15:57 25.62908 122.08966 35063 ft 520 kts 35°
2026-04-25 15:58 25.68762 122.13595 35080 ft 516 kts 29°
2026-04-25 15:58 25.74703 122.18072 35076 ft 517 kts 29°
2026-04-25 15:59 25.80635 122.22629 35080 ft 519 kts 30°
2026-04-25 15:59 25.86552 122.27244 35078 ft 520 kts 30°
2026-04-25 16:00 25.90513 122.30343 35077 ft 521 kts 30°
2026-04-25 16:00 25.98409 122.36522 35072 ft 522 kts 30°
2026-04-25 16:01 26.04347 122.41171 35074 ft 522 kts 30°
2026-04-25 16:01 26.10286 122.45826 35079 ft 522 kts 30°
2026-04-25 16:02 26.16228 122.50490 35071 ft 522 kts 30°
2026-04-25 16:02 26.22159 122.55156 35085 ft 521 kts 30°
2026-04-25 16:03 26.28076 122.59821 35073 ft 521 kts 30°
2026-04-25 16:03 26.33982 122.64483 35068 ft 519 kts 30°
2026-04-25 16:04 26.38876 122.68351 35078 ft 519 kts 30°
2026-04-25 16:04 26.44757 122.73005 35079 ft 518 kts 30°
2026-04-25 16:05 26.50624 122.77653 35071 ft 517 kts 30°
2026-04-25 16:06 26.59421 122.84623 35080 ft 516 kts 30°
2026-04-25 16:06 26.65283 122.89263 35079 ft 516 kts 30°
2026-04-25 16:07 26.71146 122.93912 35080 ft 517 kts 30°
2026-04-25 16:07 26.77008 122.98568 35076 ft 517 kts 30°
2026-04-25 16:08 26.82872 123.03235 35075 ft 517 kts 30°
2026-04-25 16:08 26.88736 123.07917 35079 ft 518 kts 30°
2026-04-25 16:09 26.94604 123.12611 35080 ft 518 kts 30°
2026-04-25 16:09 27.00470 123.17308 35078 ft 518 kts 30°
2026-04-25 16:10 27.06341 123.22015 35079 ft 519 kts 30°
2026-04-25 16:10 27.12215 123.26730 35076 ft 519 kts 30°
2026-04-25 16:11 27.18085 123.31449 35075 ft 519 kts 30°
2026-04-25 16:11 27.23955 123.36174 35079 ft 519 kts 30°
2026-04-25 16:12 27.29785 123.40873 35079 ft 519 kts 30°
2026-04-25 16:12 27.35650 123.45605 35073 ft 519 kts 30°
2026-04-25 16:13 27.41515 123.50345 35070 ft 519 kts 30°
2026-04-25 16:13 27.47374 123.55087 35075 ft 519 kts 30°
2026-04-25 16:14 27.53235 123.59836 35076 ft 519 kts 30°
2026-04-25 16:14 27.59090 123.64587 35075 ft 518 kts 30°
2026-04-25 16:15 27.64905 123.69404 35068 ft 520 kts 32°
2026-04-25 16:15 27.70586 123.74472 35079 ft 521 kts 34°
2026-04-25 16:16 27.76246 123.79569 35071 ft 520 kts 33°
2026-04-25 16:16 27.81926 123.84630 35079 ft 520 kts 33°
2026-04-25 16:17 27.87615 123.89680 35077 ft 520 kts 33°
2026-04-25 16:17 27.93300 123.94737 35077 ft 520 kts 33°
2026-04-25 16:18 27.98993 123.99811 35075 ft 522 kts 33°
2026-04-25 16:18 28.04704 124.04906 35086 ft 524 kts 33°
2026-04-25 16:19 28.10399 124.09995 35088 ft 526 kts 33°
2026-04-25 16:19 28.16157 124.15149 35083 ft 529 kts 33°
2026-04-25 16:20 28.24830 124.22929 35080 ft 531 kts 33°
2026-04-25 16:21 28.33513 124.30735 35078 ft 531 kts 33°
2026-04-25 16:21 28.39298 124.35944 35078 ft 530 kts 33°
2026-04-25 16:22 28.45073 124.41152 35072 ft 529 kts 33°
2026-04-25 16:22 28.50832 124.46353 35074 ft 528 kts 33°
2026-04-25 16:23 28.56577 124.51547 35078 ft 527 kts 33°
2026-04-25 16:23 28.62313 124.56742 35076 ft 527 kts 33°
2026-04-25 16:24 28.68042 124.61939 35079 ft 526 kts 33°
2026-04-25 16:24 28.73759 124.67131 35078 ft 525 kts 33°
2026-04-25 16:25 28.79875 124.71470 35069 ft 511 kts 15°
2026-04-25 16:25 28.86500 124.74166 35074 ft 505 kts 10°
2026-04-25 16:26 28.93166 124.76702 35081 ft 506 kts 10°
2026-04-25 16:26 28.99802 124.79288 35080 ft 508 kts 11°
2026-04-25 16:27 29.06489 124.81949 35080 ft 510 kts 11°
2026-04-25 16:27 29.13191 124.84635 35080 ft 511 kts 11°
2026-04-25 16:28 29.19906 124.87326 35077 ft 512 kts 11°
2026-04-25 16:28 29.26630 124.90022 35072 ft 512 kts 11°
2026-04-25 16:29 29.33356 124.92721 35079 ft 512 kts 11°
2026-04-25 16:29 29.40079 124.95423 35072 ft 512 kts 11°
2026-04-25 16:30 29.46801 124.98128 35078 ft 512 kts 11°
2026-04-25 16:30 29.53515 125.00834 35074 ft 511 kts 11°
2026-04-25 16:31 29.60226 125.03542 35073 ft 510 kts 11°
2026-04-25 16:31 29.66879 125.06231 35073 ft 510 kts 11°
2026-04-25 16:32 29.73571 125.08939 35074 ft 510 kts 11°
2026-04-25 16:32 29.80261 125.11651 35076 ft 509 kts 11°
2026-04-25 16:33 29.86983 125.14375 35076 ft 518 kts 11°
2026-04-25 16:33 29.93853 125.17166 35074 ft 525 kts 12°
2026-04-25 16:34 30.00747 125.19979 35074 ft 525 kts 12°
2026-04-25 16:34 30.07637 125.22792 35078 ft 525 kts 12°
2026-04-25 16:35 30.14512 125.25607 35071 ft 524 kts 12°
2026-04-25 16:35 30.21378 125.28422 35078 ft 523 kts 12°
2026-04-25 16:36 30.28236 125.31238 35074 ft 522 kts 12°
2026-04-25 16:36 30.35079 125.34052 35079 ft 522 kts 12°
2026-04-25 16:37 30.41920 125.36869 35074 ft 521 kts 12°
2026-04-25 16:37 30.48754 125.39688 35079 ft 521 kts 12°
2026-04-25 16:38 30.55534 125.42488 35079 ft 521 kts 12°
2026-04-25 16:38 30.62360 125.45311 35075 ft 521 kts 12°
2026-04-25 16:39 30.69182 125.48137 35079 ft 521 kts 12°
2026-04-25 16:39 30.76008 125.50969 35079 ft 521 kts 12°
2026-04-25 16:40 30.82834 125.53806 35079 ft 521 kts 12°
2026-04-25 16:40 30.89658 125.56645 35079 ft 521 kts 12°
2026-04-25 16:41 30.96492 125.59494 35079 ft 522 kts 12°
2026-04-25 16:41 31.06749 125.63777 35076 ft 522 kts 12°
2026-04-25 16:42 31.13585 125.66637 35079 ft 522 kts 12°
2026-04-25 16:42 31.20424 125.69503 35075 ft 522 kts 12°
2026-04-25 16:43 31.27263 125.72373 35079 ft 522 kts 12°
2026-04-25 16:43 31.34106 125.75250 35075 ft 522 kts 12°
2026-04-25 16:44 31.40896 125.78109 35079 ft 522 kts 12°
2026-04-25 16:44 31.47739 125.80994 35075 ft 522 kts 12°
2026-04-25 16:45 31.54624 125.83902 35079 ft 522 kts 12°
2026-04-25 16:45 31.61417 125.86772 35075 ft 522 kts 12°
2026-04-25 16:46 31.68263 125.89648 35079 ft 522 kts 12°
2026-04-25 16:46 31.72837 125.91570 35076 ft 522 kts 12°
2026-04-25 16:47 31.81931 125.95403 35079 ft 522 kts 12°
2026-04-25 16:47 31.88771 125.98292 35065 ft 522 kts 12°
2026-04-25 16:48 31.95614 126.01187 35079 ft 523 kts 12°
2026-04-25 16:48 32.02475 126.04096 35079 ft 525 kts 12°
2026-04-25 16:49 32.09356 126.07014 35081 ft 526 kts 12°
2026-04-25 16:49 32.16250 126.09933 35080 ft 527 kts 12°
2026-04-25 16:50 32.23159 126.12863 35072 ft 528 kts 12°
2026-04-25 16:50 32.30072 126.15801 35079 ft 528 kts 12°
2026-04-25 16:51 32.36987 126.18745 35078 ft 528 kts 12°
2026-04-25 16:51 32.41615 126.20719 35070 ft 528 kts 12°
2026-04-25 16:52 32.50815 126.24648 35075 ft 528 kts 12°
2026-04-25 16:52 32.57716 126.27602 35078 ft 527 kts 12°
2026-04-25 16:53 32.66891 126.31540 35075 ft 526 kts 12°
2026-04-25 16:54 32.73775 126.34501 35073 ft 526 kts 12°
2026-04-25 16:54 32.80652 126.37464 35073 ft 526 kts 12°
2026-04-25 16:55 32.87533 126.40433 35075 ft 525 kts 12°
2026-04-25 16:55 32.94408 126.43406 35079 ft 525 kts 12°
2026-04-25 16:56 33.01232 126.46359 35079 ft 525 kts 12°
2026-04-25 16:56 33.08111 126.49318 35075 ft 525 kts 12°
2026-04-25 16:57 33.14986 126.52270 35079 ft 525 kts 12°
2026-04-25 16:57 33.21863 126.55232 35074 ft 525 kts 12°
2026-04-25 16:58 33.28743 126.58204 35077 ft 526 kts 12°
2026-04-25 16:58 33.35631 126.61184 35068 ft 527 kts 12°
2026-04-25 16:59 33.42532 126.64178 35073 ft 528 kts 12°
2026-04-25 16:59 33.49431 126.67190 35089 ft 528 kts 12°
2026-04-25 17:00 33.56381 126.69887 35073 ft 518 kts
2026-04-25 17:00 33.59904 126.70480 35077 ft 506 kts 354°
2026-04-25 17:00 33.63409 126.70814 35078 ft 505 kts 353°
2026-04-25 17:01 33.70420 126.71414 35079 ft 506 kts 354°
2026-04-25 17:01 33.77441 126.72112 35078 ft 507 kts 354°
2026-04-25 17:02 33.84474 126.72867 35075 ft 508 kts 355°
2026-04-25 17:02 33.91470 126.73607 35078 ft 508 kts 354°
2026-04-25 17:03 33.98492 126.74340 35082 ft 501 kts 356°
2026-04-25 17:03 34.05344 126.75063 35074 ft 492 kts 356°
2026-04-25 17:04 34.12193 126.75771 35079 ft 496 kts 356°
2026-04-25 17:04 34.19090 126.76493 35077 ft 498 kts 356°
2026-04-25 17:05 34.26003 126.77222 35079 ft 500 kts 356°
2026-04-25 17:05 34.36407 126.78325 35079 ft 501 kts 356°
2026-04-25 17:06 34.43344 126.79065 35069 ft 500 kts 356°
2026-04-25 17:06 34.50270 126.79805 35081 ft 499 kts 356°
2026-04-25 17:07 34.57179 126.80543 35073 ft 498 kts 356°
2026-04-25 17:07 34.64079 126.81283 35084 ft 496 kts 356°
2026-04-25 17:08 34.70953 126.82019 35087 ft 495 kts 356°
2026-04-25 17:08 34.77813 126.82753 35088 ft 495 kts 356°
2026-04-25 17:09 34.84642 126.83487 35071 ft 496 kts 356°
2026-04-25 17:09 34.91563 126.84232 35093 ft 496 kts 356°
2026-04-25 17:10 34.98394 126.84968 35079 ft 497 kts 357°
2026-04-25 17:10 35.05278 126.85712 35066 ft 497 kts 356°
2026-04-25 17:11 35.12161 126.86458 35072 ft 496 kts 356°
2026-04-25 17:11 35.19025 126.87202 35070 ft 495 kts 356°
2026-04-25 17:12 35.25891 126.87948 35073 ft 495 kts 356°
2026-04-25 17:12 35.32746 126.88693 35087 ft 495 kts 356°
2026-04-25 17:13 35.38464 126.89314 35090 ft 497 kts 356°
2026-04-25 17:13 35.46534 126.90197 35077 ft 498 kts 356°
2026-04-25 17:14 35.53452 126.90952 35063 ft 500 kts 356°
2026-04-25 17:14 35.60366 126.91710 35064 ft 498 kts 356°
2026-04-25 17:15 35.67262 126.92467 35070 ft 496 kts 356°
2026-04-25 17:15 35.74123 126.93220 35066 ft 494 kts 356°
2026-04-25 17:16 35.80962 126.93972 35077 ft 493 kts 356°
2026-04-25 17:16 35.87792 126.94723 35077 ft 492 kts 356°
2026-04-25 17:17 35.94613 126.95475 35078 ft 492 kts 356°
2026-04-25 17:17 36.01444 126.96230 35084 ft 492 kts 358°
2026-04-25 17:18 36.08188 126.96980 35070 ft 484 kts
2026-04-25 17:18 36.14827 126.97721 35077 ft 478 kts 360°
2026-04-25 17:19 36.21489 126.98456 34651 ft 486 kts 360°
2026-04-25 17:19 36.24867 126.98829 33944 ft 487 kts
2026-04-25 17:19 36.28242 126.99206 33168 ft 487 kts
2026-04-25 17:20 36.31616 126.99584 32427 ft 486 kts
2026-04-25 17:20 36.34957 126.99960 31891 ft 480 kts
2026-04-25 17:20 36.38268 127.00322 31317 ft 474 kts 359°
2026-04-25 17:20 36.41529 127.00410 30756 ft 466 kts 354°
2026-04-25 17:21 36.44756 127.00280 30201 ft 460 kts 353°
2026-04-25 17:21 36.47935 127.00094 29651 ft 455 kts 353°
2026-04-25 17:21 36.51087 126.99924 29102 ft 451 kts 353°
2026-04-25 17:21 36.54208 126.99791 28552 ft 447 kts 354°
2026-04-25 17:22 36.57299 126.99679 27999 ft 443 kts 354°
2026-04-25 17:22 36.59378 126.99608 27627 ft 441 kts 354°
2026-04-25 17:22 36.63414 126.99469 26908 ft 436 kts 354°
2026-04-25 17:22 36.66429 126.99362 26364 ft 432 kts 354°
2026-04-25 17:23 36.69416 126.99255 25844 ft 428 kts 354°
2026-04-25 17:23 36.72374 126.99141 25313 ft 423 kts 353°
2026-04-25 17:23 36.75216 126.98457 24766 ft 410 kts 335°
2026-04-25 17:23 36.77814 126.97088 24286 ft 403 kts 332°
2026-04-25 17:24 36.80369 126.95668 23770 ft 400 kts 332°
2026-04-25 17:24 36.82900 126.94278 23273 ft 396 kts 333°
2026-04-25 17:24 36.85424 126.92926 22776 ft 393 kts 333°
2026-04-25 17:24 36.87937 126.91598 22277 ft 390 kts 333°
2026-04-25 17:25 36.89596 126.90761 21950 ft 389 kts 338°
2026-04-25 17:25 36.93199 126.90356 21289 ft 394 kts
2026-04-25 17:25 36.95811 126.91393 20743 ft 397 kts 26°
2026-04-25 17:25 36.98033 126.93415 20262 ft 395 kts 42°
2026-04-25 17:26 37.00010 126.95772 19782 ft 392 kts 44°
2026-04-25 17:26 37.01960 126.98137 19297 ft 388 kts 43°
2026-04-25 17:26 37.03911 127.00455 18895 ft 383 kts 43°
2026-04-25 17:26 37.05904 127.02570 18732 ft 370 kts 30°
2026-04-25 17:27 37.08238 127.03735 18586 ft 355 kts
2026-04-25 17:27 37.10650 127.03862 18276 ft 345 kts 351°
2026-04-25 17:27 37.12957 127.03162 17895 ft 339 kts 335°
2026-04-25 17:27 37.13650 127.02764 17764 ft 336 kts 329°
2026-04-25 17:28 37.16866 127.00074 17215 ft 327 kts 322°
2026-04-25 17:28 37.18684 126.98428 17075 ft 318 kts 321°
2026-04-25 17:28 37.20456 126.96834 16923 ft 309 kts 322°
2026-04-25 17:28 37.22190 126.95299 16783 ft 301 kts 322°
2026-04-25 17:29 37.23879 126.93815 16651 ft 292 kts 322°
2026-04-25 17:29 37.25524 126.92372 16527 ft 284 kts 322°
2026-04-25 17:29 37.27122 126.90963 16386 ft 277 kts 320°
2026-04-25 17:29 37.28546 126.89363 16108 ft 273 kts 312°
2026-04-25 17:30 37.29864 126.87660 15847 ft 271 kts 311°
2026-04-25 17:30 37.31178 126.85967 15577 ft 270 kts 312°
2026-04-25 17:30 37.31603 126.85425 15490 ft 269 kts 312°
2026-04-25 17:30 37.32499 126.84291 15316 ft 268 kts 313°
2026-04-25 17:31 37.33816 126.82638 15046 ft 267 kts 313°
2026-04-25 17:31 37.35108 126.80972 14781 ft 265 kts 311°
2026-04-25 17:31 37.36375 126.79299 14522 ft 264 kts 311°
2026-04-25 17:31 37.37431 126.77457 14234 ft 258 kts 288°
2026-04-25 17:32 37.37667 126.75287 14007 ft 247 kts 259°
2026-04-25 17:32 37.37169 126.73264 13760 ft 242 kts 238°
2026-04-25 17:32 37.36224 126.71548 13483 ft 237 kts 218°
2026-04-25 17:32 37.34800 126.70617 13238 ft 233 kts 190°
2026-04-25 17:33 37.33160 126.70652 12993 ft 244 kts 165°
2026-04-25 17:33 37.31607 126.71593 12734 ft 253 kts 148°
2026-04-25 17:33 37.30153 126.72853 12435 ft 254 kts 145°
2026-04-25 17:33 37.28724 126.74157 12169 ft 253 kts 144°
2026-04-25 17:34 37.27299 126.75454 11887 ft 252 kts 145°
2026-04-25 17:34 37.25873 126.76731 11621 ft 251 kts 145°
2026-04-25 17:34 37.24449 126.77994 11358 ft 250 kts 145°
2026-04-25 17:34 37.23032 126.79247 11099 ft 249 kts 145°
2026-04-25 17:35 37.21618 126.80493 10835 ft 248 kts 145°
2026-04-25 17:35 37.20211 126.81730 10582 ft 246 kts 145°
2026-04-25 17:35 37.18810 126.82960 10326 ft 245 kts 145°
2026-04-25 17:35 37.17436 126.84168 10083 ft 244 kts 145°
2026-04-25 17:36 37.16047 126.85386 9822 ft 243 kts 145°
2026-04-25 17:36 37.14598 126.86441 9545 ft 242 kts 164°
2026-04-25 17:36 37.12948 126.86507 9312 ft 238 kts 195°
2026-04-25 17:36 37.11510 126.85531 9081 ft 236 kts 222°
2026-04-25 17:37 37.10451 126.83975 8859 ft 235 kts 233°
2026-04-25 17:37 37.09548 126.82279 8598 ft 234 kts 244°
2026-04-25 17:37 37.09265 126.80292 8351 ft 234 kts 276°
2026-04-25 17:37 37.09821 126.78401 8120 ft 234 kts 305°
2026-04-25 17:38 37.10987 126.77003 7908 ft 232 kts 322°
2026-04-25 17:38 37.11427 126.76604 7821 ft 232 kts 323°
2026-04-25 17:38 37.13515 126.74515 7415 ft 230 kts 321°
2026-04-25 17:38 37.14784 126.73298 7182 ft 230 kts 322°
2026-04-25 17:39 37.16074 126.72119 6940 ft 230 kts 323°
2026-04-25 17:39 37.17393 126.70939 6637 ft 236 kts 323°
2026-04-25 17:39 37.18748 126.69737 6321 ft 240 kts 323°
2026-04-25 17:39 37.20119 126.68525 5993 ft 242 kts 323°
2026-04-25 17:40 37.21505 126.67301 5664 ft 244 kts 323°
2026-04-25 17:40 37.22901 126.66068 5342 ft 246 kts 323°
2026-04-25 17:40 37.24305 126.64825 5011 ft 248 kts 323°
2026-04-25 17:40 37.25721 126.63573 4675 ft 250 kts 323°
2026-04-25 17:41 37.27162 126.62342 4341 ft 250 kts 324°
2026-04-25 17:41 37.28561 126.61145 4018 ft 244 kts 323°
2026-04-25 17:41 37.29933 126.59933 3698 ft 238 kts 322°
2026-04-25 17:41 37.30833 126.59130 3513 ft 232 kts 322°
2026-04-25 17:42 37.32525 126.57617 3090 ft 219 kts 322°
2026-04-25 17:42 37.33744 126.56526 2815 ft 213 kts 322°
2026-04-25 17:42 37.34931 126.55465 2528 ft 206 kts 322°
2026-04-25 17:42 37.35703 126.54776 2345 ft 197 kts 321°
2026-04-25 17:43 37.37095 126.53531 2016 ft 175 kts 324°
2026-04-25 17:43 37.37746 126.52950 1869 ft 164 kts 324°
2026-04-25 17:43 37.38620 126.52169 1653 ft 146 kts 324°
2026-04-25 17:43 37.39417 126.51457 1487 ft 135 kts 324°
2026-04-25 17:44 37.40177 126.50778 1306 ft 134 kts 324°
2026-04-25 17:44 37.40929 126.50106 1122 ft 135 kts 324°
2026-04-25 17:44 37.41702 126.49416 954 ft 133 kts 323°
2026-04-25 17:44 37.42454 126.48737 774 ft 135 kts 323°
2026-04-25 17:45 37.43211 126.48055 623 ft 134 kts 324°
2026-04-25 17:45 37.43724 126.47599 492 ft 133 kts 324°
2026-04-25 17:45 37.44733 126.46711 260 ft 133 kts 323°
2026-04-25 17:45 37.45481 126.46039 101 ft 132 kts 324°
2026-04-25 17:46 37.46175 126.45419 32 ft 107 kts 324°
2026-04-25 17:46 37.46677 126.44971 31 ft 72 kts 324°
2026-04-25 17:46 37.46989 126.44694 30 ft 37 kts 324°
2026-04-25 17:46 37.47174 126.44499 30 ft 32 kts 310°
2026-04-25 17:47 37.47261 126.44303 32 ft 13 kts 287°
2026-04-25 17:47 37.47244 126.44256 31 ft 5 kts 231°
2026-04-25 17:47 37.47210 126.44238 32 ft 6 kts 184°
2026-04-25 17:47 37.47167 126.44268 32 ft 10 kts 147°
2026-04-25 17:48 37.46974 126.44440 32 ft 23 kts 145°
2026-04-25 17:48 37.46827 126.44570 31 ft 28 kts 145°
2026-04-25 17:48 37.46656 126.44722 30 ft 30 kts 144°
2026-04-25 17:49 37.46488 126.44872 30 ft 25 kts 144°
2026-04-25 17:49 37.46368 126.44978 30 ft 20 kts 144°
2026-04-25 17:49 37.46252 126.45082 31 ft 21 kts 144°
2026-04-25 17:49 37.46131 126.45190 32 ft 21 kts 144°
2026-04-25 17:50 37.46014 126.45295 32 ft 20 kts 145°
2026-04-25 17:50 37.45901 126.45395 32 ft 19 kts 144°
2026-04-25 17:50 37.45796 126.45484 32 ft 18 kts 163°
2026-04-25 17:50 37.45716 126.45409 32 ft 15 kts 234°
2026-04-25 17:51 37.45657 126.45306 32 ft 14 kts 234°
2026-04-25 17:51 37.45577 126.45263 32 ft 14 kts 163°
2026-04-25 17:51 37.45489 126.45296 32 ft 13 kts 163°
2026-04-25 17:51 37.45402 126.45328 32 ft 14 kts 163°
2026-04-25 17:52 37.45306 126.45364 32 ft 15 kts 163°
2026-04-25 17:52 37.45243 126.45403 31 ft 15 kts 129°
2026-04-25 17:52 37.45218 126.45584 32 ft 17 kts 102°
2026-04-25 17:52 37.45178 126.45723 30 ft 17 kts 123°
2026-04-25 17:53 37.45084 126.45808 31 ft 17 kts 163°
2026-04-25 17:53 37.44979 126.45802 31 ft 8 kts 212°
2026-04-25 17:53 37.44979 126.45753 31 ft 6 kts 305°
2026-04-25 17:53 37.44995 126.45710 29 ft 4 kts 293°
2026-04-25 17:54 37.45001 126.45694 32 ft 0 kts 294°
2026-04-25 17:54 37.45001 126.45693 32 ft 0 kts 294°